Voltar ao catálogo

STARLINK-4051

AtivoComunicaçõesVLEO
NORAD 53273·PAYLOAD·🇺🇸 United States

Lançado Jul 24, 2022 de Cape Canaveral Space Force Station

Loading…

Próximas Passagens (próximas 24 horas)

TLE

AtualizadoSource: CelesTrak SupGP

Época: Sep 15, 2026, 02:39 UTC

1 53273C 22086AH  26258.11090278 -.00017579  00000+0 -51958-3 0  2588
2 53273  53.1601  39.2672 0001196  91.8509  23.6007 15.34386587    15

Acompanhe STARLINK-4051 em tempo real com AllMySat

Download on the App Store